Torna al catalogo

STARLINK-36460

AttivoComunicazioniVLEO
NORAD 67432·PAYLOAD·🇺🇸 United States

Lanciato Jan 12, 2026 da Cape Canaveral Space Force Station

Loading…

Prossimi Passaggi (prossime 24 ore)

TLE

AggiornatoSource: CelesTrak SupGP

Epoca: Sep 15, 2026, 03:11 UTC

1 67432C 26005AE  26258.13312500 -.00036133  00000+0 -13089-2 0  2581
2 67432  42.9991 248.5248 0001338 266.9141 123.5781 15.27591462    15

Traccia STARLINK-36460 in tempo reale con AllMySat

Download on the App Store